Torrington, WY

6:42 PM MST on December 15, 2017 (GMT -0700)
Torrington Municipal

Weather History for KTOR - June, 2013

Change the Weather History Date:

Monday, June 24, 2013

  Actual Average Record
Temperature  
Mean Temperature 77 °F 69 °F  
Max Temperature 93 °F 85 °F 103 °F (2007)
Min Temperature 60 °F 54 °F 43 °F (1998)
Degree Days  
Heating Degree Days 0 1  
Month to date heating degree days 34 71  
Since 1 June heating degree days 34 71  
Since 1 July heating degree days 6514 6582  
Cooling Degree Days 12 5  
Month to date cooling degree days 98 78  
Year to date cooling degree days 137 96  
Since 1 June cooling degree days 98 78  
Growing Degree Days 26 (Base 50)    
Moisture  
Dew Point 47 °F    
Average Humidity 42    
Maximum Humidity 72    
Minimum Humidity 11    
Precipitation  
Precipitation 0.00 in 0.05 in 0.12 in (2014)
Month to date precipitation 1.66 2.10  
Year to date precipitation 5.42 7.58  
Sea Level Pressure  
Sea Level Pressure 29.60 in    
Wind  
Wind Speed 13 mph (SE)    
Max Wind Speed 30 mph    
Max Gust Speed 37 mph    
Visibility 10 miles    
Events Thunderstorm    
T = Trace of Precipitation, MM = Missing Value Source: NWS Daily Summary

Daily Weather History Graph

Daily Weather History Graph

Search for Another Location

Airport or City:

Trip Planner

Search our weather history database for the weather conditions in past years. The results will help you decide how hot, cold, wet, or windy it might be!

Date:

Astronomy

Jun. 24, 2013 Rise Set
Actual Time 5:21 AM MDT 8:36 PM MDT
Civil Twilight 4:47 AM MDT 9:10 PM MDT
Nautical Twilight 4:02 AM MDT 9:55 PM MDT
Astronomical Twilight 3:08 AM MDT 10:49 PM MDT
Moon 9:38 PM MDT (6/24) 6:54 AM MDT (6/24)
Length of Visible Light 16h 23m
Length of Day
15h 14m
Full, 97% of the Moon is Illuminated
Jun 24
Full
Jun 29
Last Quarter
Jul 8
New
Jul 15
First Quarter
Jul 22
Full

Hourly Weather History & Observations

Time (MDT) Temp. Dew Point Humidity Pressure Visibility Wind Dir Wind Speed Gust Speed Precip Events Conditions
12:53 AM 66.0 °F 48.0 °F 52% 29.69 in 10.0 mi SE 8.1 mph - N/A   Clear
1:53 AM 62.1 °F 51.1 °F 67% 29.68 in 10.0 mi East 6.9 mph - N/A   Clear
2:53 AM 60.1 °F 51.1 °F 72% 29.67 in 10.0 mi ESE 8.1 mph - N/A   Clear
3:53 AM 64.9 °F 48.9 °F 56% 29.64 in 10.0 mi SE 9.2 mph - N/A   Clear
4:53 AM 61.0 °F 50.0 °F 67% 29.64 in 10.0 mi East 5.8 mph - N/A   Clear
5:53 AM 62.1 °F 48.9 °F 62% 29.66 in 10.0 mi SE 8.1 mph - N/A   Clear
6:53 AM 66.9 °F 46.9 °F 49% 29.66 in 10.0 mi SW 15.0 mph 21.9 mph N/A   Clear
7:53 AM 70.0 °F 50.0 °F 49% 29.66 in 10.0 mi South 10.4 mph - N/A   Clear
8:53 AM 75.9 °F 52.0 °F 43% 29.64 in 10.0 mi SSW 9.2 mph - N/A   Clear
9:53 AM 82.0 °F 51.1 °F 34% 29.60 in 10.0 mi SSW 18.4 mph - N/A   Clear
10:53 AM 84.9 °F 48.9 °F 29% 29.58 in 10.0 mi SSW 23.0 mph 31.1 mph N/A   Clear
11:53 AM 86.0 °F 48.0 °F 27% 29.56 in 10.0 mi SSW 19.6 mph 28.8 mph N/A   Clear
12:53 PM 91.9 °F 46.9 °F 21% 29.54 in 10.0 mi SSW 16.1 mph 27.6 mph N/A   Clear
1:53 PM 88.0 °F 43.0 °F 21% 29.54 in 10.0 mi South 20.7 mph - N/A   Clear
2:53 PM 87.1 °F 33.1 °F 15% 29.55 in 10.0 mi WNW 9.2 mph 21.9 mph N/A   Clear
3:53 PM 87.1 °F 33.1 °F 15% 29.53 in 10.0 mi NNW 11.5 mph 17.3 mph N/A   Clear
4:53 PM 91.0 °F 30.0 °F 11% 29.52 in 10.0 mi NNW 4.6 mph - N/A   Clear
5:53 PM 84.9 °F 37.9 °F 19% 29.54 in 10.0 mi NW 10.4 mph - N/A   Partly Cloudy
6:27 PM 86.0 °F 37.4 °F 18% 29.68 in 10.0 mi WNW 6.9 mph - N/A Thunderstorm Thunderstorm
6:53 PM 86.0 °F 50.0 °F 29% 29.50 in 10.0 mi ENE 6.9 mph - N/A   Clear
7:53 PM 78.1 °F 51.1 °F 39% 29.51 in 10.0 mi NE 8.1 mph - N/A   Clear
8:53 PM 71.1 °F 54.0 °F 55% 29.55 in 10.0 mi East 23.0 mph - N/A   Clear
9:53 PM 72.0 °F 54.0 °F 53% 29.58 in 10.0 mi East 19.6 mph 28.8 mph N/A   Clear
10:53 PM 72.0 °F 55.0 °F 55% 29.59 in 10.0 mi ENE 11.5 mph 36.8 mph N/A   Clear
11:53 PM 69.1 °F 55.0 °F 61% 29.61 in 10.0 mi ESE 12.7 mph - N/A   Clear